TimeEDT,TemperatureF,Dew PointF,Humidity,Sea Level PressureIn,VisibilityMPH,Wind Direction,Wind SpeedMPH,Gust SpeedMPH,PrecipitationIn,Events,Conditions,WindDirDegrees,DateUTC
12:51 AM,64.9,61.9,90,30.64,10.0,Calm,Calm,-,N/A,,Clear,0,2013-08-13 04:51:00
1:51 AM,65.8,61.9,87,30.62,10.0,Calm,Calm,-,N/A,,Clear,0,2013-08-13 05:51:00
2:51 AM,64.9,61.9,90,30.61,10.0,Calm,Calm,-,N/A,,Partly Cloudy,0,2013-08-13 06:51:00
3:51 AM,64.9,61.9,90,30.60,10.0,Calm,Calm,-,N/A,,Partly Cloudy,0,2013-08-13 07:51:00
4:51 AM,63.9,61.9,93,30.58,10.0,Calm,Calm,-,N/A,,Partly Cloudy,0,2013-08-13 08:51:00
5:51 AM,63.9,61.9,93,30.57,10.0,Calm,Calm,-,N/A,,Clear,0,2013-08-13 09:51:00
6:51 AM,65.8,61.9,87,30.58,10.0,Calm,Calm,-,N/A,,Clear,0,2013-08-13 10:51:00
7:51 AM,66.9,61.9,84,30.56,10.0,Calm,Calm,-,N/A,,Clear,0,2013-08-13 11:51:00
8:51 AM,68.9,63.0,81,30.56,10.0,Calm,Calm,-,N/A,,Clear,0,2013-08-13 12:51:00
9:51 AM,70.0,63.9,81,30.56,10.0,Calm,Calm,-,N/A,,Clear,0,2013-08-13 13:51:00
10:51 AM,68.9,64.9,87,30.57,5.0,Calm,Calm,-,0.01,Rain,Light Rain,0,2013-08-13 14:51:00
11:51 AM,68.9,66.9,93,30.56,5.0,Calm,Calm,-,0.04,Rain,Light Rain,0,2013-08-13 15:51:00
12:51 PM,70.9,65.8,84,30.54,5.0,Calm,Calm,-,0.00,Rain,Light Rain,0,2013-08-13 16:51:00
1:51 PM,70.9,65.8,84,30.52,10.0,Calm,Calm,-,0.00,,Partly Cloudy,0,2013-08-13 17:51:00
2:51 PM,72.9,66.9,82,30.49,6.0,Calm,Calm,-,N/A,,Haze,0,2013-08-13 18:51:00
2:58 PM,73.4,66.2,78,29.77,6.0,ESE,6.9,-,N/A,,Haze,120,2013-08-13 18:58:00
3:51 PM,73.9,65.8,76,30.47,10.0,South,6.9,-,N/A,,Overcast,180,2013-08-13 19:51:00
4:51 PM,72.9,64.9,76,30.45,10.0,Variable,3.5,-,N/A,,Overcast,0,2013-08-13 20:51:00
4:58 PM,73.4,64.4,73,29.73,10.0,SSE,4.6,-,N/A,,Mostly Cloudy,150,2013-08-13 20:58:00
5:05 PM,73.4,64.4,73,29.73,10.0,SE,3.5,-,N/A,,Overcast,130,2013-08-13 21:05:00
5:51 PM,72.9,64.9,76,30.44,10.0,South,3.5,-,N/A,,Overcast,170,2013-08-13 21:51:00
6:51 PM,72.9,64.9,76,30.43,10.0,Calm,Calm,-,N/A,,Partly Cloudy,0,2013-08-13 22:51:00
7:51 PM,70.0,65.8,87,30.42,10.0,Calm,Calm,-,N/A,,Scattered Clouds,0,2013-08-13 23:51:00
8:51 PM,66.9,64.9,93,30.43,10.0,Calm,Calm,-,N/A,,Clear,0,2013-08-14 00:51:00
9:51 PM,66.9,64.9,93,30.44,10.0,Calm,Calm,-,N/A,,Clear,0,2013-08-14 01:51:00
10:51 PM,65.8,63.9,93,30.44,10.0,Calm,Calm,-,N/A,,Clear,0,2013-08-14 02:51:00
11:51 PM,65.8,64.9,97,30.40,9.0,Calm,Calm,-,N/A,,Clear,0,2013-08-14 03:51:00